Location: Unspecified
(52.4292°N, 19.3359°E)
Time: 23:39:58
(UTC+02:00)

SR - Pass Details

Date: 02 June 2024
Orbit: 580 x 858 km, 66.7° (Epoch: 12 June)

Event Time Altitude Azimuth Distance (km) Brightness Sun altitude
Rises 01:49:33 0° 307° (NW) 2,840 ? -13.8°
Reaches altitude 10° 01:52:59 10° 278° (W) 1,909 ? -13.7°
Maximum altitude 01:54:49 13° 253° (WSW) 1,735 ? -13.6°
Enters shadow 01:55:27 12° 243° (WSW) 1,753 ? -13.6°
Drops below altitude 10° 01:56:38 10° 227° (SW) 1,894 - -13.5°
Sets 02:00:00 0° 198° (SSW) 2,796 - -13.4°
